Back to catalog

OPS 4682 DEB

AlivePO
NORAD 51490·DEBRIS·🇺🇸 United States

Launched Apr 3, 1965 from Vandenberg Space Force Base

Loading…

Next Passes (next 24 hours)

TLE

FreshSource: Space-Track

Epoch: Sep 12, 2026, 01:58 UTC

1 51490U 65027GA  26255.08227625  .00000358  00000-0  12461-2 0  9993
2 51490  90.2499   8.1369 0016376 313.5860  46.3900 12.95294680556723

Track OPS 4682 DEB in real time with AllMySat

Download on the App Store